This is the latest recevied weather packets stored in our database for station/object W3BRL. If no packets are shown the sender has not sent any weather packets the latest 10 day(s).
| Time | Temp. | Humidity | Pressure | Rain* | Wind** | Luminosity | Snow |
|---|---|---|---|---|---|---|---|
| 1777843085 | 14.44° C | 34% | 1011.4 hPa | 0 mm | - | 505 W/m² | - |
| 1777842781 | 14.44° C | 33% | 1011.5 hPa | 0 mm | - | 525 W/m² | - |
| 1777842481 | 14.44° C | 33% | 1011.6 hPa | 0 mm | - | 338 W/m² | - |
| 1777842179 | 13.89° C | 33% | 1011.4 hPa | 0 mm | - | 579 W/m² | - |
| 1777841874 | 14.44° C | 33% | 1011.6 hPa | 0 mm | - | 195 W/m² | - |
| 1777841571 | 13.89° C | 33% | 1011.7 hPa | 0 mm | - | 271 W/m² | - |
| 1777841267 | 13.89° C | 34% | 1011.8 hPa | 0 mm | - | 238 W/m² | - |
| 1777840965 | 14.44° C | 32% | 1011.7 hPa | 0 mm | - | 236 W/m² | - |
| 1777840662 | 13.89° C | 32% | 1011.9 hPa | 0 mm | - | 454 W/m² | - |
| 1777840360 | 14.44° C | 33% | 1011.9 hPa | 0 mm | - | 180 W/m² | - |
| 1777840057 | 13.89° C | 34% | 1011.9 hPa | 0 mm | - | 706 W/m² | - |
| 1777839754 | 13.89° C | 33% | 1011.8 hPa | 0 mm | - | 180 W/m² | - |
| 1777839452 | 15° C | 31% | 1012 hPa | 0 mm | - | 203 W/m² | - |
| 1777839149 | 13.89° C | 33% | 1011.8 hPa | 0 mm | - | 751 W/m² | - |
| 1777838846 | 14.44° C | 32% | 1012 hPa | 0 mm | - | 203 W/m² | - |
| 1777838542 | 14.44° C | 32% | 1012.2 hPa | 0 mm | - | 773 W/m² | - |
| 1777838239 | 14.44° C | 33% | 1012.1 hPa | 0 mm | - | 311 W/m² | - |
| 1777837936 | 13.89° C | 32% | 1012.1 hPa | 0 mm | - | 789 W/m² | - |
| 1777837633 | 13.89° C | 32% | 1012.4 hPa | 0 mm | - | 253 W/m² | - |
| 1777837329 | 13.89° C | 33% | 1012.3 hPa | 0 mm | - | 364 W/m² | - |
| 1777837025 | 13.89° C | 32% | 1012.3 hPa | 0 mm | - | 291 W/m² | - |
| 1777836721 | 14.44° C | 32% | 1012.5 hPa | 0 mm | - | 266 W/m² | - |
| 1777836417 | 14.44° C | 31% | 1012.5 hPa | 0 mm | - | 814 W/m² | - |
| 1777836112 | 14.44° C | 32% | 1012.6 hPa | 0 mm | - | 833 W/m² | - |
| 1777835809 | 14.44° C | 31% | 1012.6 hPa | 0 mm | - | 831 W/m² | - |
* Rain latest hour (hover to see other rain measurements)
** Current wind speed in m/s (hover to see current wind gust speed)